K7JGC-9 Weather Reports


time (UTC)temp
C
wind
direction
speed
KPH
gust
KPH
rain 1hr
cm
rain 24hr
cm
rain mn
cm
humidity
%
barometer
mb
20260508022539 18 176 0.0 0.0 0.00 0.00 0.00 44 1016.4
20260508015538 20 176 0.0 0.0 0.00 0.00 0.00 39 1016.7
20260508012536 20 174 0.0 0.0 0.00 0.00 0.00 40 1016.8
20260508005531 20 177 0.0 0.0 0.00 0.00 0.00 40 1017.1
20260508002529 21 172 0.0 0.0 0.00 0.00 0.00 32 1017.2
20260507235525 21 171 0.0 0.0 0.00 0.00 0.00 38 1017.5
20260507232524 22 178 0.0 0.0 0.00 0.00 0.00 38 1017.7
20260507225521 25 177 0.0 0.0 0.00 0.00 0.00 36 1018.1
20260507222518 23 177 0.0 0.0 0.00 0.00 0.00 37 1018.3
20260507215516 24 176 0.0 0.0 0.00 0.00 0.00 38 1019.0
20260507212514 23 178 0.0 0.0 0.00 0.00 0.00 40 1019.3
20260507205512 23 188 0.0 0.0 0.00 0.00 0.00 44 1019.5
20260507202509 21 175 0.0 0.0 0.00 0.00 0.00 48 1019.8
20260507195504 21 181 0.0 0.0 0.00 0.00 0.00 47 1020.2
20260507192502 18 177 0.0 0.0 0.00 0.00 0.00 57 1020.6
20260507185502 18 179 0.0 0.0 0.00 0.00 0.00 55 1020.7
20260507182501 18 182 0.0 0.0 0.00 0.00 0.00 53 1021.2
20260507175457 17 181 0.0 0.0 0.00 0.00 0.00 55 1021.3
20260507172457 15 179 0.0 0.0 0.00 0.00 0.00 61 1021.4
20260507165453 13 179 0.0 0.0 0.00 0.00 0.00 68 1021.4
20260507162451 13 178 0.0 0.0 0.00 0.00 0.00 69 1021.8
20260507155447 12 181 0.0 0.0 0.00 0.00 0.00 68 1021.8
20260507152444 12 178 0.0 0.0 0.00 0.00 0.00 71 1021.9
20260507145441 11 179 0.0 0.0 0.00 0.00 0.00 72 1021.9
20260507142439 11 178 0.0 0.0 0.00 0.00 0.00 72 1021.8
20260507135438 11 173 0.0 0.0 0.00 0.00 0.00 74 1021.5
20260507132436 11 176 0.0 0.0 0.00 0.00 0.00 74 1021.3
20260507125432 11 179 0.0 0.0 0.00 0.00 0.00 76 1021.5
20260507122430 11 178 0.0 0.0 0.00 0.00 0.00 75 1021.5
20260507115430 11 178 0.0 0.0 0.00 0.00 0.00 75 1021.6
20260507112429 11 180 0.0 0.0 0.00 0.00 0.00 74 1021.6
20260507105426 11 188 0.0 0.0 0.00 0.00 0.00 74 1021.7
20260507102422 12 180 0.0 0.0 0.00 0.00 0.00 75 1021.9
20260507095421 12 175 0.0 0.0 0.00 0.00 0.00 75 1021.9
20260507092420 12 180 0.0 0.0 0.00 0.00 0.00 76 1022.0
20260507085418 12 179 0.0 0.0 0.00 0.00 0.00 75 1022.3
20260507082415 12 178 0.0 0.0 0.00 0.00 0.00 75 1022.3
20260507075410 12 181 0.0 0.0 0.00 0.00 0.00 76 1022.2
20260507072410 12 180 0.0 0.0 0.00 0.00 0.00 78 1022.2
20260507065409 12 176 0.0 0.0 0.00 0.00 0.00 77 1022.3
20260507062404 13 179 0.0 0.0 0.00 0.00 0.00 77 1022.1
20260507055404 13 177 0.0 0.0 0.00 0.00 0.00 77 1022.2
20260507052400 12 180 0.0 0.0 0.00 0.00 0.00 78 1022.3
20260507045359 13 177 0.0 0.0 0.00 0.00 0.00 75 1022.1
20260507042355 13 178 0.0 0.0 0.00 0.00 0.00 74 1021.9
20260507035350 15 177 0.0 0.0 0.00 0.00 0.00 73 1021.8
20260507032350 15 180 0.0 0.0 0.00 0.00 0.00 72 1021.3